Weather History for KBTM - November, 2010

Change the Weather History Date:

Saturday, November 13, 2010

  Actual Average Record
Temperature  
Mean Temperature 31 °F 29 °F  
Max Temperature 34 °F 41 °F 66 °F (1999)
Min Temperature 27 °F 17 °F -42 °F (1959)
Degree Days  
Heating Degree Days 34 36  
Month to date heating degree days 382 426  
Since 1 July heating degree days 1695 1797  
Cooling Degree Days 0 0  
Month to date cooling degree days 0 0  
Year to date cooling degree days 27 81  
Moisture  
Dew Point 20 °F    
Average Humidity 61    
Maximum Humidity 75    
Minimum Humidity 47    
Precipitation  
Precipitation T in 0.02 in 0.29 in (2008)
Month to date precipitation 0.16 0.26  
Year to date precipitation 14.40 11.92  
Sea Level Pressure  
Sea Level Pressure 30.35 in    
Wind  
Wind Speed 4 mph (NW)    
Max Wind Speed 14 mph    
Max Gust Speed 16 mph    
Visibility 10 miles    
Events Snow    
T = Trace of Precipitation, MM = Missing Value Source: NWS Daily Summary

Daily Weather History Graph

Daily Weather History Graph

Search for Another Location

Airport or City:

Trip Planner

Search our weather history database for the weather conditions in past years. The results will help you decide how hot, cold, wet, or windy it might be!

Date:

Astronomy

Nov. 13, 2010 Rise Set
Actual Time 7:27 AM MST 5:00 PM MST
Civil Twilight 6:55 AM MST 5:32 PM MST
Nautical Twilight 6:19 AM MST 6:08 PM MST
Astronomical Twilight 5:44 AM MST 6:43 PM MST
Moon 1:18 PM MST (11/13) No Moon Set
Length of Visible Light 10h 37m
Length of Day
9h 32m
Waxing Crescent, 51% of the Moon is Illuminated
Nov 13
Waxing Crescent
Nov 21
Full
Nov 28
Last Quarter
Dec 5
New
Dec 13
First Quarter

Hourly Weather History & Observations

Time (MST) Temp. Windchill Dew Point Humidity Pressure Visibility Wind Dir Wind Speed Gust Speed Precip Events Conditions
12:53 AM 28.0 °F 24.2 °F 18.0 °F 66% 30.52 in 10.0 mi North 3.5 mph - N/A   Overcast
1:53 AM 28.0 °F - 18.0 °F 66% 30.51 in 10.0 mi Calm Calm - N/A   Overcast
2:53 AM 27.0 °F 21.6 °F 18.0 °F 69% 30.51 in 10.0 mi NW 4.6 mph - N/A   Overcast
3:53 AM 27.0 °F - 19.0 °F 72% 30.50 in 10.0 mi Calm Calm - N/A   Overcast
4:53 AM 27.0 °F 21.6 °F 19.0 °F 72% 30.50 in 10.0 mi NNW 4.6 mph - N/A   Overcast
5:53 AM 27.0 °F - 19.0 °F 72% 30.49 in 10.0 mi Calm Calm - N/A   Overcast
6:53 AM 27.0 °F - 19.0 °F 72% 30.48 in 10.0 mi Calm Calm - N/A   Overcast
7:53 AM 27.0 °F - 18.0 °F 69% 30.47 in 10.0 mi Calm Calm - N/A   Overcast
8:53 AM 28.0 °F - 17.1 °F 63% 30.46 in 10.0 mi Calm Calm - N/A   Overcast
9:53 AM 28.9 °F 25.2 °F 15.1 °F 56% 30.44 in 10.0 mi NW 3.5 mph - N/A   Overcast
10:53 AM 30.9 °F 26.2 °F 16.0 °F 54% 30.40 in 10.0 mi West 4.6 mph - N/A   Overcast
11:53 AM 33.1 °F 26.1 °F 16.0 °F 50% 30.35 in 10.0 mi West 8.1 mph - N/A   Overcast
12:53 PM 33.1 °F 26.1 °F 17.1 °F 52% 30.32 in 10.0 mi WNW 8.1 mph - N/A   Mostly Cloudy
1:53 PM 33.1 °F 24.4 °F 18.0 °F 54% 30.31 in 10.0 mi NW 11.5 mph - N/A   Overcast
2:29 PM 32.0 °F 23.0 °F 21.2 °F 64% 30.21 in 6.0 mi NW 11.5 mph - 0.00 in Snow Light Snow
2:53 PM 30.0 °F 23.2 °F 23.0 °F 75% 30.32 in 8.0 mi NW 6.9 mph - 0.00 in Snow Light Snow
3:53 PM 30.9 °F - 21.9 °F 69% 30.29 in 10.0 mi Calm Calm - 0.00 in   Overcast
4:53 PM 30.9 °F 25.2 °F 21.9 °F 69% 30.30 in 10.0 mi NW 5.8 mph - N/A   Overcast
5:03 PM 32.0 °F 28.7 °F 21.2 °F 64% 30.18 in 10.0 mi WNW 3.5 mph - N/A   Overcast
5:28 PM 30.2 °F 26.7 °F 21.2 °F 69% 30.18 in 10.0 mi WNW 3.5 mph - N/A   Overcast
5:53 PM 30.9 °F 27.5 °F 21.9 °F 69% 30.29 in 10.0 mi NW 3.5 mph - N/A   Overcast
6:53 PM 30.9 °F 27.5 °F 21.9 °F 69% 30.25 in 10.0 mi North 3.5 mph - N/A   Overcast
7:53 PM 32.0 °F 25.6 °F 23.0 °F 69% 30.25 in 10.0 mi NNW 6.9 mph - N/A   Overcast
8:53 PM 32.0 °F 23.6 °F 23.0 °F 69% 30.25 in 10.0 mi NNW 10.4 mph - N/A   Overcast
9:53 PM 32.0 °F 24.2 °F 23.0 °F 69% 30.22 in 10.0 mi NNW 9.2 mph - N/A   Overcast
10:53 PM 30.9 °F 27.5 °F 23.0 °F 72% 30.22 in 10.0 mi WNW 3.5 mph - N/A   Mostly Cloudy
11:53 PM 33.1 °F 30.0 °F 23.0 °F 66% 30.19 in 10.0 mi Variable 3.5 mph - N/A   Overcast